Time,TemperatureF,DewpointF,PressureIn,WindDirection,WindDirectionDegrees,WindSpeedMPH,WindSpeedGustMPH,Humidity,HourlyPrecipIn,Conditions,Clouds,dailyrainin,SoftwareType,DateUTC
2013-10-26 00:00:00,38.0,31.0,-100.00,SSW,205,0.0,0.0,78,0.00,,,-99.99,,2013-10-26 04:00:00,
2013-10-26 00:44:00,38.0,31.0,-100.00,SSW,205,0.0,0.0,78,0.00,,,-99.99,,2013-10-26 04:44:00,
2013-10-26 00:54:00,38.0,31.0,-100.00,SSW,205,0.0,0.0,78,0.00,,,-99.99,,2013-10-26 04:54:00,
2013-10-26 01:00:00,37.0,31.0,-100.00,SSW,204,0.0,5.0,79,0.00,,,-99.99,,2013-10-26 05:00:00,
2013-10-26 01:43:00,37.0,31.0,-100.00,SSW,204,0.0,5.0,79,0.00,,,-99.99,,2013-10-26 05:43:00,
2013-10-26 01:52:00,37.0,31.0,-100.00,SSW,204,0.0,5.0,79,0.00,,,-99.99,,2013-10-26 05:52:00,
2013-10-26 02:00:00,35.0,31.0,-100.00,South,185,0.0,5.0,84,0.00,,,-99.99,,2013-10-26 06:00:00,
2013-10-26 02:42:00,35.0,31.0,-100.00,South,185,0.0,5.0,84,0.00,,,-99.99,,2013-10-26 06:42:00,
2013-10-26 02:52:00,35.0,31.0,-100.00,South,185,0.0,5.0,84,0.00,,,-99.99,,2013-10-26 06:52:00,
2013-10-26 03:00:00,36.0,31.0,-100.00,WSW,251,0.0,6.0,80,0.00,,,-99.99,,2013-10-26 07:00:00,
2013-10-26 03:42:00,36.0,31.0,-100.00,WSW,251,0.0,6.0,80,0.00,,,-99.99,,2013-10-26 07:42:00,
2013-10-26 03:52:00,36.0,31.0,-100.00,WSW,251,0.0,6.0,80,0.00,,,-99.99,,2013-10-26 07:52:00,
2013-10-26 04:00:00,35.0,31.0,-100.00,SW,219,4.0,5.0,85,0.00,,,-99.99,,2013-10-26 08:00:00,
2013-10-26 04:42:00,35.0,31.0,-100.00,SW,219,4.0,5.0,85,0.00,,,-99.99,,2013-10-26 08:42:00,
2013-10-26 04:52:00,35.0,31.0,-100.00,SW,219,4.0,5.0,85,0.00,,,-99.99,,2013-10-26 08:52:00,
2013-10-26 05:00:00,33.0,30.0,-100.00,SW,218,0.0,5.0,86,0.00,,,-99.99,,2013-10-26 09:00:00,
2013-10-26 05:43:00,33.0,30.0,-100.00,SW,218,0.0,5.0,86,0.00,,,-99.99,,2013-10-26 09:43:00,
2013-10-26 05:53:00,33.0,30.0,-100.00,SW,218,0.0,5.0,86,0.00,,,-99.99,,2013-10-26 09:53:00,
2013-10-26 06:00:00,32.0,29.0,-100.00,SW,220,0.0,0.0,90,0.00,,,-99.99,,2013-10-26 10:00:00,
2013-10-26 06:42:00,32.0,29.0,-100.00,SW,220,0.0,0.0,90,0.00,,,-99.99,,2013-10-26 10:42:00,
2013-10-26 06:53:00,32.0,29.0,-100.00,SW,220,0.0,0.0,90,0.00,,,-99.99,,2013-10-26 10:53:00,
2013-10-26 07:00:00,32.0,29.0,-100.00,SW,217,0.0,5.0,88,0.00,,,-99.99,,2013-10-26 11:00:00,
2013-10-26 07:42:00,32.0,29.0,-100.00,SW,217,0.0,5.0,88,0.00,,,-99.99,,2013-10-26 11:42:00,
2013-10-26 07:52:00,32.0,29.0,-100.00,SW,217,0.0,5.0,88,0.00,,,-99.99,,2013-10-26 11:52:00,
2013-10-26 08:00:00,33.0,30.0,-100.00,West,267,0.0,5.0,86,0.00,,,-99.99,,2013-10-26 12:00:00,
2013-10-26 08:42:00,33.0,30.0,-100.00,West,267,0.0,5.0,86,0.00,,,-99.99,,2013-10-26 12:42:00,
2013-10-26 08:52:00,33.0,30.0,-100.00,West,267,0.0,5.0,86,0.00,,,-99.99,,2013-10-26 12:52:00,
2013-10-26 09:00:00,39.0,31.0,-100.00,SSW,200,5.0,9.0,73,0.00,,,-99.99,,2013-10-26 13:00:00,
2013-10-26 09:42:00,39.0,31.0,-100.00,SSW,200,5.0,9.0,73,0.00,,,-99.99,,2013-10-26 13:42:00,
2013-10-26 09:52:00,39.0,31.0,-100.00,SSW,200,5.0,9.0,73,0.00,,,-99.99,,2013-10-26 13:52:00,
2013-10-26 10:00:00,46.0,32.0,-100.00,SSW,211,2.0,9.0,58,0.00,,,-99.99,,2013-10-26 14:00:00,
2013-10-26 10:42:00,46.0,32.0,-100.00,SSW,211,2.0,9.0,58,0.00,,,-99.99,,2013-10-26 14:42:00,
2013-10-26 10:52:00,46.0,32.0,-100.00,SSW,211,2.0,9.0,58,0.00,,,-99.99,,2013-10-26 14:52:00,
2013-10-26 11:00:00,50.0,28.0,-100.00,SSW,210,5.0,15.0,44,0.00,,,-99.99,,2013-10-26 15:00:00,
2013-10-26 11:44:00,50.0,28.0,-100.00,SSW,210,5.0,15.0,44,0.00,,,-99.99,,2013-10-26 15:44:00,
2013-10-26 11:55:00,50.0,28.0,-100.00,SSW,210,5.0,15.0,44,0.00,,,-99.99,,2013-10-26 15:55:00,
2013-10-26 12:00:00,52.0,27.0,-100.00,South,185,6.0,18.0,37,0.00,,,-99.99,,2013-10-26 16:00:00,
2013-10-26 12:44:00,52.0,27.0,-100.00,South,185,6.0,18.0,37,0.00,,,-99.99,,2013-10-26 16:44:00,
2013-10-26 12:54:00,52.0,27.0,-100.00,South,185,6.0,18.0,37,0.00,,,-99.99,,2013-10-26 16:54:00,
2013-10-26 13:00:00,53.0,25.0,-100.00,WNW,288,6.0,22.0,34,0.00,,,-99.99,,2013-10-26 17:00:00,
2013-10-26 13:43:00,53.0,25.0,-100.00,WNW,288,6.0,22.0,34,0.00,,,-99.99,,2013-10-26 17:43:00,
2013-10-26 13:52:00,53.0,25.0,-100.00,WNW,288,6.0,22.0,34,0.00,,,-99.99,,2013-10-26 17:52:00,
2013-10-26 14:00:00,55.0,27.0,-100.00,WSW,253,5.0,24.0,34,0.00,,,-99.99,,2013-10-26 18:00:00,
2013-10-26 14:42:00,55.0,27.0,-100.00,WSW,253,5.0,24.0,34,0.00,,,-99.99,,2013-10-26 18:42:00,
2013-10-26 14:52:00,55.0,27.0,-100.00,WSW,253,5.0,24.0,34,0.00,,,-99.99,,2013-10-26 18:52:00,
2013-10-26 15:00:00,56.0,25.0,-100.00,SSW,205,8.0,21.0,30,0.00,,,-99.99,,2013-10-26 19:00:00,
2013-10-26 15:42:00,56.0,25.0,-100.00,SSW,205,8.0,21.0,30,0.00,,,-99.99,,2013-10-26 19:42:00,
2013-10-26 15:52:00,56.0,25.0,-100.00,SSW,205,8.0,21.0,30,0.00,,,-99.99,,2013-10-26 19:52:00,
2013-10-26 16:00:00,55.0,29.0,-100.00,SW,234,7.0,21.0,37,0.00,,,-99.99,,2013-10-26 20:00:00,
2013-10-26 16:43:00,55.0,29.0,-100.00,SW,234,7.0,21.0,37,0.00,,,-99.99,,2013-10-26 20:43:00,
2013-10-26 16:52:00,55.0,29.0,-100.00,SW,234,7.0,21.0,37,0.00,,,-99.99,,2013-10-26 20:52:00,
2013-10-26 17:00:00,54.0,32.0,-100.00,WSW,251,6.0,16.0,42,0.00,,,-99.99,,2013-10-26 21:00:00,
2013-10-26 17:43:00,54.0,32.0,-100.00,WSW,251,6.0,16.0,42,0.00,,,-99.99,,2013-10-26 21:43:00,
2013-10-26 17:55:00,54.0,32.0,-100.00,WSW,251,6.0,16.0,42,0.00,,,-99.99,,2013-10-26 21:55:00,
2013-10-26 21:00:00,47.0,33.0,-100.00,SSW,209,0.0,9.0,58,0.00,,,-99.99,,2013-10-27 01:00:00,
2013-10-26 21:42:00,47.0,33.0,-100.00,SSW,209,0.0,9.0,58,0.00,,,-99.99,,2013-10-27 01:42:00,
2013-10-26 21:52:00,47.0,33.0,-100.00,SSW,209,0.0,9.0,58,0.00,,,-99.99,,2013-10-27 01:52:00,
2013-10-26 22:00:00,46.0,33.0,-100.00,SW,221,0.0,10.0,59,0.00,,,-99.99,,2013-10-27 02:00:00,
2013-10-26 22:42:00,46.0,33.0,-100.00,SW,221,0.0,10.0,59,0.00,,,-99.99,,2013-10-27 02:42:00,
2013-10-26 22:52:00,46.0,33.0,-100.00,SW,221,0.0,10.0,59,0.00,,,-99.99,,2013-10-27 02:52:00,
2013-10-26 23:00:00,-999.0,-99.9,-100.00,SW,228,4.0,10.0,-999,-99.99,,,-99.99,,2013-10-27 03:00:00,
2013-10-26 23:45:00,47.0,33.0,-100.00,SW,228,4.0,10.0,58,0.00,,,-99.99,,2013-10-27 03:45:00,
2013-10-26 23:55:00,47.0,33.0,-100.00,SW,228,4.0,10.0,58,0.00,,,-99.99,,2013-10-27 03:55:00,